Tracking 20232 objects as of 21-Jan-2020
HD Live streaming from Space Station
objects crossing your sky now

IRIDIUM 168

Track IRIDIUM 168 now!
10-day predictions
IRIDIUM 168 is classified as:


NORAD ID: 43924
Int'l Code: 2019-002C
Perigee: 783.5 km
Apogee: 786.1 km
Inclination: 86.4 °
Period: 100.4 minutes
Semi major axis: 7155 km
RCS: Unknown
Launch date: January 11, 2019
Source: United States (US)
Launch site: AIR FORCE WESTERN TEST RANGE (AFWTR)
aabbcc
Your satellite tracking list
Your tracking list is empty




NASA's NSSDC Master Catalog

Two Line Element Set (TLE):
1 43924U 19002C   20021.20979579 +.00000085 +00000-0 +23285-4 0  9994
2 43924 086.3965 251.0037 0001775 094.9279 265.2119 14.34217599053727
Source of the keplerian elements: AFSPC